TimePST,TemperatureF,Dew PointF,Humidity,Sea Level PressureIn,VisibilityMPH,Wind Direction,Wind SpeedMPH,Gust SpeedMPH,PrecipitationIn,Events,Conditions,WindDirDegrees,DateUTC
12:51 AM,48.9,35.1,59,30.25,10.0,Calm,Calm,-,N/A,,Mostly Cloudy,0,2013-01-01 08:51:00
1:51 AM,48.9,35.1,59,30.25,10.0,NE,3.5,-,N/A,,Mostly Cloudy,50,2013-01-01 09:51:00
2:51 AM,48.9,34.0,56,30.24,10.0,NNE,4.6,-,N/A,,Mostly Cloudy,30,2013-01-01 10:51:00
3:51 AM,48.9,34.0,56,30.22,10.0,Variable,3.5,-,N/A,,Mostly Cloudy,0,2013-01-01 11:51:00
4:51 AM,46.9,35.1,63,30.22,10.0,Calm,Calm,-,N/A,,Scattered Clouds,0,2013-01-01 12:51:00
5:51 AM,46.9,34.0,61,30.21,10.0,Calm,Calm,-,N/A,,Mostly Cloudy,0,2013-01-01 13:51:00
6:51 AM,46.0,35.1,66,30.20,10.0,Calm,Calm,-,N/A,,Mostly Cloudy,0,2013-01-01 14:51:00
7:51 AM,48.0,34.0,58,30.21,10.0,Calm,Calm,-,N/A,,Scattered Clouds,0,2013-01-01 15:51:00
8:51 AM,51.1,33.1,50,30.22,10.0,Calm,Calm,-,N/A,,Mostly Cloudy,0,2013-01-01 16:51:00
9:51 AM,53.1,32.0,45,30.23,10.0,Calm,Calm,-,N/A,,Mostly Cloudy,0,2013-01-01 17:51:00
10:51 AM,57.9,33.1,39,30.20,10.0,Variable,3.5,-,N/A,,Mostly Cloudy,0,2013-01-01 18:51:00
11:51 AM,57.9,30.9,36,30.16,10.0,Calm,Calm,-,N/A,,Mostly Cloudy,0,2013-01-01 19:51:00
12:51 PM,59.0,35.1,41,30.13,10.0,NW,5.8,-,N/A,,Mostly Cloudy,310,2013-01-01 20:51:00
1:51 PM,59.0,30.9,35,30.12,10.0,WNW,10.4,-,N/A,,Mostly Cloudy,290,2013-01-01 21:51:00
2:51 PM,59.0,36.0,42,30.11,10.0,NW,8.1,-,N/A,,Mostly Cloudy,310,2013-01-01 22:51:00
3:51 PM,59.0,37.9,46,30.10,10.0,NW,8.1,-,N/A,,Mostly Cloudy,320,2013-01-01 23:51:00
4:51 PM,57.9,35.1,42,30.10,10.0,NNE,4.6,-,N/A,,Mostly Cloudy,20,2013-01-02 00:51:00
5:51 PM,57.0,33.1,40,30.11,10.0,Calm,Calm,-,N/A,,Mostly Cloudy,0,2013-01-02 01:51:00
6:51 PM,55.9,32.0,40,30.12,10.0,East,5.8,-,N/A,,Mostly Cloudy,100,2013-01-02 02:51:00
7:51 PM,55.9,32.0,40,30.14,10.0,SW,3.5,-,N/A,,Mostly Cloudy,220,2013-01-02 03:51:00
8:51 PM,55.0,32.0,42,30.14,10.0,North,3.5,-,N/A,,Mostly Cloudy,350,2013-01-02 04:51:00
9:51 PM,52.0,34.0,50,30.14,10.0,Calm,Calm,-,N/A,,Mostly Cloudy,0,2013-01-02 05:51:00
10:51 PM,50.0,32.0,50,30.14,10.0,Calm,Calm,-,N/A,,Partly Cloudy,0,2013-01-02 06:51:00
11:51 PM,48.9,30.0,48,30.13,10.0,Calm,Calm,-,N/A,,Scattered Clouds,0,2013-01-02 07:51:00